Tracking 29594 objects as of 20-Sep-2024
HD Live streaming from Space Station
objects crossing your sky now

THORAD AGENA D DEB

Track THORAD AGENA D DEB now!
10-day predictions


NORAD ID: 19667
Int'l Code: 1970-025QC
Perigee: 1,065.3 km
Apogee: 1,589.5 km
Inclination: 99.7 °
Period: 112.0 minutes
Semi major axis: 7698 km
RCS: 0.0155 m2 (small)
Launch date: April 8, 1970
Source: United States (US)
Launch site: AIR FORCE WESTERN TEST RANGE (AFWTR)

Note: This is SATELLITE DEBRIS
Your satellite tracking list
Your tracking list is empty




NASA's NSSDC Master Catalog

Two Line Element Set (TLE):
1 19667U 70025QC  24264.18792892  .00000834  00000-0  27599-2 0  9996
2 19667  99.7102 239.7327 0340499  99.2446 330.4591 12.85298193700241
Source of the keplerian elements: AFSPC